Voltar ao catálogo

COSMOS 1436

AtivoMilitarLEO
NORAD 13768·PAYLOAD·🇷🇺 Russia

Lançado Jan 19, 1983 de Plesetsk Cosmodrome

Loading…

Próximas Passagens (próximas 24 horas)

TLE

AtualizadoSource: Space-Track

Época: Sep 14, 2026, 00:12 UTC

1 13768U 83002H   26257.00865804 -.00000022  00000-0 -32260-4 0  9994
2 13768  74.0207 264.5092 0044544 275.1722 112.5265 12.57743513  4163

Acompanhe COSMOS 1436 em tempo real com AllMySat

Download on the App Store